This demonstration page uses our WeatherBlox Daily Observations layout. Learn more.

Left ArrowRight Arrow

30.21309, -93.2044

Hourly Observations for April 1, 2022

Temp ( °F °C ) Dew Point ( °F °C ) Humidity (%) Winds ( mph kmh ) Pressure ( in mb ) Visibility ( mi km ) Precip ( " mm )
12:15 am 00:15 Clear 55 12.7 44 6.8 68 68 Calm 29.97 1015 10 16 0.00 0.00
12:35 am 00:35 Clear 53 11.6 45 7.1 74 74 Calm 29.98 1015 10 16 0.00 0.00
12:55 am 00:55 Clear 56 13.4 45 7.3 67 67 Calm 29.98 1015 10 16 0.00 0.00
1:15 am 01:15 Clear 52 11 45 7.4 79 79 Calm 29.98 1015 10 16 0.00 0.00
1:35 am 01:35 Clear 54 12.3 46 7.7 74 74 Calm 29.98 1015 10 16 0.00 0.00
1:55 am 01:55 Clear 54 12.2 47 8.4 78 78 Calm 29.97 1015 10 16 0.00 0.00
2:15 am 02:15 Clear 52 11.3 45 7.1 76 76 NNW 5 7 29.97 1015 10 16 0.00 0.00
2:35 am 02:35 Clear 54 12.2 46 7.6 74 74 NNW 6 9 29.97 1015 10 16 0.00 0.00
2:55 am 02:55 Clear 53 11.6 45 7.2 75 75 N 5 7 29.97 1015 10 16 0.00 0.00
3:15 am 03:15 Clear 53 11.6 44 6.9 73 73 NNE 3 6 29.97 1015 10 16 0.00 0.00
3:35 am 03:35 Clear 52 11.3 45 7.2 76 76 N 3 6 29.97 1015 10 16 0.00 0.00
3:55 am 03:55 Clear 51 10.8 45 7.4 80 80 N 5 7 29.97 1015 10 16 0.00 0.00
4:15 am 04:15 Clear 53 11.7 46 7.8 77 77 NNE 6 9 29.97 1015 10 16 0.00 0.00
4:35 am 04:35 Clear 52 11.2 46 7.8 80 80 NE 3 6 29.98 1015 10 16 0.00 0.00
4:55 am 04:55 Clear 53 11.6 47 8.2 80 80 NE 6 9 29.98 1015 10 16 0.00 0.00
5:15 am 05:15 Clear 53 11.7 46 7.5 76 76 NE 7 11 29.98 1015 10 16 0.00 0.00
5:35 am 05:35 Clear 53 11.4 45 7 75 75 ENE 5 7 29.99 1016 10 16 0.00 0.00
6:00 am 06:00 Mostly Clear 52 11 45 7 77 77 ENE 6 9 29.99 1016 10 16 0.00 0.00
6:47 am 06:47 Mostly Clear 52 11 45 7 77 77 ENE 6 9 30.01 1016 10 16 0.00 0.00
7:55 am 07:55 Mostly Sunny 52 11 45 7 77 77 ENE 6 9 30.01 1016 10 16 0.00 0.00
8:51 am 08:51 Mostly Sunny 57 14 46 8 67 67 E 9 15 30.06 1018 10 16 0.00 0.00
9:52 am 09:52 Mostly Sunny 63 17 45 7 52 52 ENE 10 17 30.08 1019 10 16 0.00 0.00
10:55 am 10:55 Mostly Sunny 66 19 45 7 46 46 E 9 15 30.10 1019 10 16 0.00 0.00
11:55 am 11:55 Mostly Sunny 70 21 46 8 43 43 ESE 12 19 30.08 1019 10 16 0.00 0.00
12:55 pm 12:55 Mostly Sunny 72 22 45 7 38 38 E 9 15 30.08 1019 10 16 0.00 0.00
1:50 pm 13:50 Mostly Sunny 72 22 45 7 38 38 E 6 9 30.06 1018 10 16 0.00 0.00
3:50 pm 15:50 Mostly Sunny 73 23 46 8 38 38 E 13 20 30.00 1016 10 16 0.00 0.00
4:45 pm 16:45 Mostly Sunny 73 23 46 8 38 38 E 9 15 29.99 1016 10 16 0.00 0.00
5:53 pm 17:53 Mostly Sunny 72 22 46 8 41 41 E 9 15 29.98 1015 10 16 0.00 0.00
6:55 pm 18:55 Mostly Sunny 70 21 84 29 100 100 E 9 15 29.97 1015 10 16 0.00 0.00
7:55 pm 19:55 Mostly Clear 64 18 46 8 52 52 E 7 11 29.97 1015 10 16 0.00 0.00
8:55 pm 20:55 Mostly Clear 61 16 48 9 63 63 E 6 9 29.99 1016 10 16 0.00 0.00
9:45 pm 21:45 Mostly Clear 61 16 50 10 68 68 E 5 7 29.99 1016 10 16 0.00 0.00
10:15 pm 22:15 Clear 62 16.6 49 9.6 64 64 NNE 5 7 30.01 1016 10 16 0.00 0.00
10:35 pm 22:35 Clear 60 15.8 50 10.1 69 69 Calm 30.01 1016 10 16 0.00 0.00
10:55 pm 22:55 Clear 59 14.9 50 10 73 73 Calm 30.01 1016 10 16 0.00 0.00
11:15 pm 23:15 Clear 60 15.4 51 10.3 72 72 NNE 3 6 30.01 1016 10 16 0.00 0.00
11:35 pm 23:35 Clear 60 15.3 50 10 71 71 NNE 3 6 30.00 1016 10 16 0.00 0.00
11:55 pm 23:55 Clear 58 14.6 49 9.4 71 71 E 3 6 30.00 1016 10 16 0.00 0.00

Powered by AerisWeather